This demonstration page uses our WeatherBlox Daily Observations layout. Learn more.

Left ArrowRight Arrow

44.8408, -93.29828

Hourly Observations for March 3, 2017

Temp ( °F °C ) Dew Point ( °F °C ) Humidity (%) Winds ( mph kmh ) Pressure ( in mb ) Visibility ( mi km ) Precip ( " mm )
12:53 am 00:53 Clear 16 -8.9 6 -14.4 65 65 WNW 7 11 30.54 1034 10 16 0.00 0.00
1:53 am 01:53 Clear 16 -8.9 5 -15 62 62 NW 7 11 30.55 1035 10 16 0.00 0.00
2:53 am 02:53 Clear 16 -8.9 5 -15 62 62 NW 6 9 30.55 1035 10 16 0.00 0.00
3:53 am 03:53 Clear 15 -9.4 4 -15.6 61 61 NNW 5 7 30.56 1035 10 16 0.00 0.00
4:53 am 04:53 Mostly Cloudy 15 -9.4 5 -15 64 64 NW 3 6 30.58 1035 10 16 0.00 0.00
5:53 am 05:53 Mostly Clear 15 -9.4 4 -15.6 61 61 Calm 30.58 1036 10 16 0.00 0.00
6:53 am 06:53 Mostly Sunny 13 -10.6 2 -16.7 61 61 SE 6 9 30.59 1036 10 16 0.00 0.00
7:53 am 07:53 Partly Cloudy 15 -9.4 3 -16.1 59 59 ESE 8 13 30.58 1036 10 16 0.00 0.00
8:53 am 08:53 Mostly Cloudy 17 -8.3 4 -15.6 56 56 SE 7 11 30.59 1036 10 16 0.00 0.00
9:53 am 09:53 Mostly Cloudy 20 -6.7 5 -15 52 52 SSE 7 11 30.58 1036 10 16 0.00 0.00
10:53 am 10:53 Mostly Cloudy 23 -5 7 -13.9 50 50 SSE 9 15 30.58 1036 10 16 0.00 0.00
11:53 am 11:53 Mostly Cloudy 26 -3.3 10 -12.2 51 51 E 9 15 30.56 1035 10 16 0.00 0.00
12:53 pm 12:53 Mostly Cloudy 28 -2.2 10 -12.2 47 47 SSE 12 19 30.52 1034 10 16 0.00 0.00
1:53 pm 13:53 Partly Cloudy 31 -0.6 11 -11.7 43 43 SSE 13 20 30.49 1033 10 16 0.00 0.00
2:53 pm 14:53 Mostly Cloudy 30 -1.1 12 -11.1 47 47 SE 14 22 30.46 1032 10 16 0.00 0.00
3:53 pm 15:53 Cloudy 28 -2.2 12 -11.1 51 51 SSE 13 20 30.46 1032 10 16 0.00 0.00
4:53 pm 16:53 Cloudy 27 -2.8 11 -11.7 51 51 SSE 15 24 30.46 1032 10 16 0.00 0.00
5:53 pm 17:53 Cloudy with Light Snow 26 -3.3 15 -9.4 63 63 S 14 22 30.47 1032 4 6 0.00 0.03
6:53 pm 18:53 Cloudy with Light Snow 25 -3.9 19 -7.2 78 78 SSE 7 11 30.48 1032 4 6 0.01 0.25
7:18 pm 19:18 Cloudy with Light Snow 25 -4 19 -7 80 80 SE 8 13 30.50 1033 2 3 0.00 0.00
7:25 pm 19:25 Cloudy with Light Snow 25 -3.9 20 -6.7 81 81 SE 8 13 30.48 1032 3 5 0.00 0.03
7:53 pm 19:53 Cloudy with Light Snow 25 -3.9 21 -6.1 85 85 VRB 7 11 30.48 1032 6 10 0.00 0.03
8:53 pm 20:53 Cloudy with Light Snow 25 -3.9 21 -6.1 85 85 ESE 10 17 30.45 1031 4 6 0.00 0.03
9:53 pm 21:53 Cloudy 26 -3.3 22 -5.6 84 84 SE 14 22 30.44 1031 10 16 0.00 0.03
10:53 pm 22:53 Cloudy 26 -3.3 21 -6.1 81 81 ESE 13 20 30.42 1030 10 16 0.00 0.00
11:53 pm 23:53 Cloudy 27 -2.8 22 -5.6 81 81 SE 14 22 30.40 1030 10 16 0.00 0.00

Powered by AerisWeather